GPS BIIR-2 (PRN 13)

Last updated on Wed Sep 17 2025 00:03:17 GMT+0000 (Coordinated Universal Time)

1 24876U 97035A 25258.98252528 .00000011 00000+0 00000+0 0 9994 2 24876 55.8486 109.3014 0095275 56.2607 304.7247 2.00562876206457
UTC large
Height (km)
Speed (km/s)
/
Latitude / Longitude
Inclination (degrees)
Orbital Period (minutes)
Azimuth
Elevation
Range (km)
Doppler Factor

Next 0 passes for location: London (51.5072 / 0.1276)

Sorry there are no passes over London.